Location: Newark
(35.7127°N, 139.7618°E)
Time: 03:51:00
(UTC+00:00)

N. Korean satellite - Pass Details

Date: 17 August 2020
Orbit: 455 x 503 km, 97.2° (Epoch: 22 September)

Event Time Altitude Azimuth Distance (km) Brightness Sun altitude
Rises 19:16:25 0° 34° (NNE) 2,555 11.3 -9.5°
Reaches altitude 10° 19:19:15 10° 59° (ENE) 1,680 10.9 -9.0°
Maximum altitude 19:21:18 15° 94° (E) 1,425 10.0 -8.6°
Drops below altitude 10° 19:23:22 10° 129° (SE) 1,686 9.7 -8.2°
Sets 19:26:13 0° 154° (SSE) 2,571 10.3 -7.7°
